Natchitoches, LA

3:53 AM CDT on March 26, 2017 (GMT -0500)
Natchitoches Regional

Weather History for KIER - January, 2013

Change the Weather History Date:

Monday, January 14, 2013

  Actual Average Record
Temperature  
Mean Temperature 36 °F -  
Max Temperature 41 °F 55 °F 82 °F (1947)
Min Temperature 32 °F 34 °F 14 °F (1964)
Degree Days  
Heating Degree Days 28    
Moisture  
Dew Point 33 °F    
Average Humidity 90    
Maximum Humidity 97    
Minimum Humidity 80    
Precipitation  
Precipitation 0.38 in - - ()
Sea Level Pressure  
Sea Level Pressure 30.21 in    
Wind  
Wind Speed 11 mph (NNE)    
Max Wind Speed 17 mph    
Max Gust Speed 23 mph    
Visibility 9 miles    
Events Rain , Thunderstorm    
Averages and records for this station are not official NWS values.
T = Trace of Precipitation, MM = Missing Value Source: NWS Daily Summary

Daily Weather History Graph

Daily Weather History Graph

Search for Another Location

Airport or City:

Trip Planner

Search our weather history database for the weather conditions in past years. The results will help you decide how hot, cold, wet, or windy it might be!

Date:

Astronomy

Jan. 14, 2013 Rise Set
Actual Time 7:12 AM CST 5:30 PM CST
Civil Twilight 6:46 AM CST 5:57 PM CST
Nautical Twilight 6:16 AM CST 6:27 PM CST
Astronomical Twilight 5:47 AM CST 6:56 PM CST
Moon 9:01 AM CST (1/14) 9:00 PM CST (1/14)
Length of Visible Light 11h 10m
Length of Day
10h 17m
Waxing Crescent, 11% of the Moon is Illuminated
Jan 14
Waxing Crescent
Jan 18
First Quarter
Jan 26
Full
Feb 3
Last Quarter
Feb 10
New

Hourly Weather History & Observations

Time (CST) Temp. Windchill Dew Point Humidity Pressure Visibility Wind Dir Wind Speed Gust Speed Precip Events Conditions
12:15 AM 41.5 °F 34.2 °F 37.6 °F 86% 30.19 in 10.0 mi NE 13.8 mph 19.6 mph N/A   Overcast
12:35 AM 41.5 °F 35.9 °F 36.9 °F 83% 30.19 in 10.0 mi NNE 9.2 mph 18.4 mph N/A   Overcast
1:15 AM 41.4 °F 36.2 °F 36.7 °F 83% 30.19 in 10.0 mi NE 8.1 mph - N/A   Overcast
1:35 AM 41.0 °F 35.2 °F 35.6 °F 81% 30.20 in 10.0 mi NNE 9.2 mph - N/A   Overcast
1:55 AM 40.3 °F 33.4 °F 34.5 °F 80% 30.19 in 10.0 mi NNE 11.5 mph - N/A   Overcast
2:15 AM 39.6 °F 31.7 °F 34.2 °F 81% 30.19 in 10.0 mi NE 13.8 mph 20.7 mph N/A   Overcast
2:55 AM 39.2 °F 31.2 °F 33.8 °F 81% 30.17 in 10.0 mi NNE 13.8 mph 19.6 mph N/A   Overcast
3:15 AM 38.7 °F 32.9 °F 33.8 °F 83% 30.17 in 10.0 mi NE 8.1 mph 17.3 mph N/A   Overcast
3:35 AM 38.5 °F 30.3 °F 33.6 °F 83% 30.16 in 10.0 mi NE 13.8 mph - N/A   Overcast
3:55 AM 38.5 °F 31.1 °F 33.8 °F 83% 30.16 in 10.0 mi NE 11.5 mph - N/A   Overcast
4:15 AM 38.5 °F 31.6 °F 34.0 °F 84% 30.16 in 10.0 mi NE 10.4 mph - N/A   Overcast
4:35 AM 38.5 °F 32.7 °F 34.0 °F 84% 30.15 in 10.0 mi ENE 8.1 mph - N/A   Overcast
4:55 AM 38.5 °F 32.1 °F 34.2 °F 84% 30.16 in 10.0 mi NNE 9.2 mph - N/A   Overcast
5:15 AM 38.3 °F 31.9 °F 34.0 °F 84% 30.16 in 10.0 mi NNE 9.2 mph - N/A   Overcast
5:35 AM 38.3 °F 30.5 °F 34.0 °F 84% 30.16 in 10.0 mi NNE 12.7 mph 18.4 mph N/A   Overcast
5:55 AM 37.8 °F 31.8 °F 33.3 °F 84% 30.16 in 10.0 mi NNE 8.1 mph - N/A   Overcast
6:15 AM 37.6 °F 29.6 °F 33.6 °F 86% 30.17 in 10.0 mi North 12.7 mph 16.1 mph N/A   Overcast
6:35 AM 37.4 °F 29.3 °F 33.3 °F 85% 30.18 in 10.0 mi North 12.7 mph - N/A   Overcast
6:55 AM 37.0 °F 30.4 °F 33.1 °F 86% 30.20 in 10.0 mi North 9.2 mph 19.6 mph N/A   Overcast
7:15 AM 37.0 °F 28.9 °F 32.7 °F 84% 30.19 in 10.0 mi North 12.7 mph - N/A   Overcast
7:35 AM 36.5 °F 29.2 °F 32.5 °F 86% 30.20 in 10.0 mi NNW 10.4 mph - N/A Rain Rain
7:55 AM 36.1 °F 28.2 °F 32.5 °F 87% 30.19 in 10.0 mi North 11.5 mph - N/A   Overcast
8:15 AM 35.8 °F 27.3 °F 32.5 °F 88% 30.21 in 10.0 mi North 12.7 mph 18.4 mph N/A Rain , Thunderstorm Light Thunderstorms and Rain
8:35 AM 35.6 °F 26.6 °F 32.7 °F 89% 30.24 in 10.0 mi North 13.8 mph 18.4 mph N/A   Overcast
8:55 AM 34.7 °F 25.5 °F 32.9 °F 93% 30.25 in 1.8 mi North 13.8 mph 17.3 mph 0.09 in Rain Rain
9:15 AM 34.2 °F 23.6 °F 32.9 °F 95% 30.23 in 4.0 mi North 17.3 mph 20.7 mph 0.02 in Rain Light Rain
9:35 AM 33.8 °F 24.8 °F 32.2 °F 94% 30.26 in 3.0 mi North 12.7 mph - 0.04 in Rain Light Rain
9:55 AM 33.3 °F 23.2 °F 32.0 °F 95% 30.27 in 2.5 mi North 15.0 mph 23.0 mph 0.08 in Rain Rain
10:15 AM 33.3 °F 25.1 °F 32.0 °F 95% 30.27 in 4.0 mi North 10.4 mph 20.7 mph N/A Rain Light Rain
10:35 AM 32.9 °F 22.4 °F 32.0 °F 96% 30.26 in 1.5 mi North 16.1 mph 21.9 mph 0.03 in Rain , Thunderstorm Light Thunderstorms and Rain
10:55 AM 32.9 °F 26.7 °F 32.0 °F 96% 30.29 in 1.2 mi North 6.9 mph - 0.11 in   Overcast
11:15 AM 33.1 °F 25.5 °F 32.4 °F 97% 30.27 in 1.8 mi North 9.2 mph - 0.06 in Rain Rain
11:35 AM 33.1 °F 24.4 °F 32.0 °F 96% 30.27 in 5.0 mi North 11.5 mph - 0.07 in   Drizzle
11:55 AM 32.9 °F 24.7 °F 31.6 °F 95% 30.27 in 10.0 mi North 10.4 mph - 0.07 in   Light Drizzle
12:15 PM 33.3 °F 24.6 °F 32.0 °F 95% 30.25 in 3.0 mi North 11.5 mph - 0.01 in Rain Rain
12:35 PM 33.3 °F 25.1 °F 32.0 °F 95% 30.23 in 4.0 mi NNE 10.4 mph - 0.02 in Rain Light Rain
12:55 PM 33.4 °F 25.9 °F 32.2 °F 95% 30.22 in 5.0 mi NE 9.2 mph - 0.03 in Rain Light Rain
1:15 PM 33.8 °F 27.0 °F 32.4 °F 94% 30.23 in 10.0 mi NE 8.1 mph - N/A   Overcast
1:35 PM 33.8 °F 26.4 °F 32.0 °F 93% 30.22 in 10.0 mi NNE 9.2 mph - N/A   Overcast
1:55 PM 34.0 °F 28.8 °F 32.5 °F 94% 30.22 in 10.0 mi NNE 5.8 mph - N/A   Overcast
2:15 PM 34.0 °F 27.2 °F 32.2 °F 93% 30.22 in 10.0 mi NNE 8.1 mph - N/A   Overcast
2:55 PM 34.7 °F 27.5 °F 32.7 °F 92% 30.22 in 10.0 mi NE 9.2 mph - N/A   Overcast
3:15 PM 34.5 °F 27.3 °F 32.7 °F 93% 30.23 in 10.0 mi NNE 9.2 mph - N/A   Overcast
3:35 PM 34.5 °F 26.7 °F 32.5 °F 92% 30.23 in 10.0 mi NNE 10.4 mph - N/A   Overcast
4:15 PM 34.7 °F 28.1 °F 32.9 °F 93% 30.23 in 10.0 mi NNE 8.1 mph - N/A   Overcast
4:35 PM 34.7 °F 29.6 °F 33.1 °F 94% 30.24 in 10.0 mi NNE 5.8 mph - N/A   Overcast
4:55 PM 34.7 °F 27.5 °F 32.9 °F 93% 30.24 in 10.0 mi NNE 9.2 mph - N/A   Overcast
5:15 PM 34.3 °F 26.5 °F 32.9 °F 94% 30.23 in 10.0 mi NNE 10.4 mph - N/A   Overcast
5:35 PM 34.3 °F 26.5 °F 32.7 °F 94% 30.24 in 10.0 mi NE 10.4 mph - N/A   Overcast
5:55 PM 34.2 °F 26.2 °F 32.5 °F 94% 30.24 in 10.0 mi NNE 10.4 mph - N/A   Overcast
6:15 PM 34.2 °F 26.8 °F 32.5 °F 94% 30.24 in 10.0 mi NNE 9.2 mph - N/A   Overcast
6:35 PM 34.2 °F 26.8 °F 32.4 °F 93% 30.24 in 10.0 mi NE 9.2 mph - N/A   Overcast
6:55 PM 34.2 °F 28.2 °F 32.4 °F 93% 30.24 in 10.0 mi NNE 6.9 mph - N/A   Overcast
7:15 PM 33.8 °F 26.4 °F 32.0 °F 93% 30.24 in 10.0 mi NNE 9.2 mph - N/A   Overcast
7:35 PM 33.8 °F 25.8 °F 32.0 °F 93% 30.24 in 10.0 mi NNE 10.4 mph - N/A   Overcast
7:55 PM 33.8 °F 26.4 °F 32.0 °F 93% 30.23 in 10.0 mi NNE 9.2 mph - N/A   Overcast
8:15 PM 33.8 °F 25.8 °F 32.0 °F 93% 30.23 in 10.0 mi North 10.4 mph - N/A   Overcast
8:35 PM 33.8 °F 26.4 °F 31.8 °F 92% 30.22 in 10.0 mi NNE 9.2 mph - N/A   Overcast
8:55 PM 33.8 °F 27.7 °F 32.0 °F 93% 30.22 in 10.0 mi NNE 6.9 mph - N/A   Overcast
9:15 PM 33.8 °F 26.4 °F 31.8 °F 92% 30.20 in 10.0 mi NNE 9.2 mph - N/A   Overcast
9:35 PM 33.6 °F 25.6 °F 31.6 °F 92% 30.21 in 10.0 mi NE 10.4 mph - N/A   Overcast
9:55 PM 33.4 °F 25.4 °F 31.6 °F 93% 30.21 in 10.0 mi NE 10.4 mph - N/A   Overcast
10:15 PM 33.4 °F 24.8 °F 31.6 °F 93% 30.19 in 10.0 mi NE 11.5 mph - N/A   Overcast
10:35 PM 33.3 °F 26.4 °F 31.5 °F 93% 30.18 in 10.0 mi NNE 8.1 mph - N/A   Overcast
10:55 PM 33.1 °F 26.9 °F 31.3 °F 93% 30.19 in 10.0 mi NNE 6.9 mph - N/A   Overcast
11:15 PM 32.9 °F 25.9 °F 31.1 °F 93% 30.19 in 10.0 mi NE 8.1 mph - N/A   Overcast
11:35 PM 33.1 °F 25.5 °F 31.5 °F 94% 30.18 in 10.0 mi NNE 9.2 mph - N/A   Overcast
11:55 PM 32.9 °F 25.3 °F 31.3 °F 94% 30.17 in 10.0 mi NNE 9.2 mph - N/A   Overcast